"read_dt","SO2 (ppb)","flags","PMT voltage (V)","lamp voltage (V)","lamp intensity (Hz)","internal temp (C)","react chamber temp (C)","sample flow (l/min)","pres (mmHg)","SO2 bkg (ppb)","SO2 coefficient"
2014-04-23 00:00:00,2991E-2,5C000400,-0724,1019,10352,028.1,045.3,0.000,739.3,01.18,0.508
2014-04-23 00:01:00,2956E-2,5C000400,-0724,1019,10258,028.2,045.3,0.000,739.3,01.18,0.508
2014-04-23 00:02:00,2963E-2,5C000400,-0724,1020,10393,028.2,045.3,0.000,739.3,01.18,0.508
2014-04-23 00:03:00,2976E-2,5C000400,-0724,1020,10362,028.2,045.3,0.000,739.3,01.18,0.508
2014-04-23 00:04:00,2978E-2,5C000400,-0724,1020,10243,028.2,045.3,0.000,739.3,01.18,0.508
2014-04-23 00:05:00,2953E-2,5C000400,-0724,1022,10406,028.2,045.3,0.000,739.2,01.18,0.508
2014-04-23 00:06:00,2995E-2,5C000400,-0724,1022,10451,028.2,045.3,0.000,739.2,01.18,0.508
2014-04-23 00:07:00,2993E-2,5C000400,-0724,1021,10316,028.2,045.3,0.000,739.2,01.18,0.508
2014-04-23 00:08:00,2988E-2,5C000400,-0724,1023,10271,028.2,045.3,0.000,739.2,01.18,0.508
2014-04-23 00:09:00,2973E-2,5C000400,-0724,1023,10218,028.2,045.3,0.000,739.2,01.18,0.508
2014-04-23 00:10:00,2971E-2,5C000400,-0724,1023,10213,028.2,045.3,0.000,739.2,01.18,0.508
2014-04-23 00:11:00,2961E-2,5C000400,-0724,1023,10296,028.2,045.3,0.000,739.2,01.18,0.508
2014-04-23 00:12:00,2974E-2,5C000400,-0724,1024,10398,028.2,045.3,0.000,739.2,01.18,0.508
2014-04-23 00:13:00,2965E-2,5C000400,-0724,1021,10373,028.3,045.3,0.000,739.3,01.18,0.508
2014-04-23 00:14:00,2981E-2,5C000400,-0724,1023,10274,028.3,045.3,0.000,739.3,01.18,0.508
2014-04-23 00:15:00,2961E-2,5C000400,-0724,1023,10309,028.3,045.3,0.000,739.3,01.18,0.508
2014-04-23 00:16:00,2961E-2,5C000400,-0724,1023,10248,028.2,045.3,0.000,739.3,01.18,0.508
2014-04-23 00:17:00,2970E-2,5C000400,-0724,1023,10162,028.3,045.3,0.000,739.3,01.18,0.508
2014-04-23 00:18:00,2995E-2,5C000400,-0724,1023,10238,028.3,045.3,0.000,739.3,01.18,0.508
2014-04-23 00:19:00,2979E-2,5C000400,-0724,1023,10212,028.3,045.3,0.000,739.3,01.18,0.508
2014-04-23 00:20:00,2996E-2,5C000400,-0724,1024,10295,028.3,045.3,0.000,739.3,01.18,0.508
2014-04-23 00:21:00,2971E-2,5C000400,-0724,1025,10360,028.3,045.3,0.000,739.3,01.18,0.508
2014-04-23 00:22:00,2967E-2,5C000400,-0724,1024,10134,028.3,045.3,0.000,739.3,01.18,0.508
2014-04-23 00:23:00,2994E-2,5C000400,-0724,1025,10184,028.3,045.3,0.000,739.3,01.18,0.508
2014-04-23 00:24:00,3031E-2,5C000400,-0724,1024,10330,028.3,045.3,0.000,739.3,01.18,0.508
2014-04-23 00:25:00,3009E-2,5C000400,-0724,1024,10305,028.3,045.3,0.000,739.3,01.18,0.508
2014-04-23 00:26:00,2974E-2,5C000400,-0724,1025,10280,028.3,045.3,0.000,739.3,01.18,0.508
2014-04-23 00:27:00,2973E-2,5C000400,-0724,1025,10225,028.3,045.3,0.000,739.3,01.18,0.508
2014-04-23 00:28:00,2980E-2,5C000400,-0724,1024,10376,028.4,045.3,0.000,739.3,01.18,0.508
2014-04-23 00:29:00,2984E-2,5C000400,-0724,1025,10377,028.3,045.3,0.000,739.3,01.18,0.508
2014-04-23 00:30:00,3015E-2,5C000400,-0724,1026,10366,028.3,045.4,0.000,739.3,01.18,0.508
2014-04-23 00:31:00,2949E-2,5C000400,-0724,1026,10176,028.3,045.3,0.000,739.3,01.18,0.508
2014-04-23 00:32:00,2971E-2,5C000400,-0724,1026,10317,028.3,045.3,0.000,739.3,01.18,0.508
2014-04-23 00:33:00,2973E-2,5C000400,-0724,1026,10223,028.3,045.3,0.000,739.3,01.18,0.508
2014-04-23 00:34:00,2923E-2,5C000400,-0724,1025,10247,028.3,045.3,0.000,739.3,01.18,0.508
2014-04-23 00:35:00,2985E-2,5C000400,-0724,1026,10182,028.4,045.3,0.000,739.3,01.18,0.508
2014-04-23 00:36:00,2922E-2,5C000400,-0724,1026,10329,028.4,045.3,0.000,739.3,01.18,0.508
2014-04-23 00:37:00,2926E-2,5C000400,-0724,1026,10252,028.4,045.3,0.000,739.3,01.18,0.508
2014-04-23 00:38:00,2953E-2,5C000400,-0724,1027,10031,028.4,045.3,0.000,739.3,01.18,0.508
2014-04-23 00:39:00,2954E-2,5C000400,-0724,1027,10399,028.4,045.3,0.000,739.3,01.18,0.508
2014-04-23 00:40:00,3003E-2,5C000400,-0724,1026,10378,028.4,045.3,0.000,739.3,01.18,0.508
2014-04-23 00:41:00,3031E-2,5C000400,-0724,1026,10123,028.4,045.3,0.000,739.3,01.18,0.508
2014-04-23 00:42:00,2959E-2,5C000400,-0724,1026,10203,028.4,045.3,0.000,739.3,01.18,0.508
2014-04-23 00:43:00,2958E-2,5C000400,-0724,1027,10238,028.4,045.3,0.000,739.3,01.18,0.508
2014-04-23 00:44:00,2961E-2,5C000400,-0724,1026,9868,028.4,045.3,0.000,739.3,01.18,0.508
2014-04-23 00:45:00,2972E-2,5C000400,-0724,1026,10322,028.4,045.3,0.000,739.3,01.18,0.508
2014-04-23 00:46:00,2983E-2,5C000400,-0724,1025,10346,028.4,045.3,0.000,739.3,01.18,0.508
2014-04-23 00:47:00,2945E-2,5C000400,-0724,1026,10142,028.4,045.3,0.000,739.3,01.18,0.508
2014-04-23 00:48:00,2940E-2,5C000400,-0724,1026,10264,028.4,045.3,0.000,739.3,01.18,0.508
2014-04-23 00:49:00,2959E-2,5C000400,-0724,1026,10208,028.5,045.3,0.000,739.3,01.18,0.508
2014-04-23 00:50:00,2989E-2,5C000400,-0724,1026,10341,028.5,045.3,0.000,739.3,01.18,0.508
2014-04-23 00:51:00,2948E-2,5C000400,-0724,1026,10243,028.5,045.3,0.000,739.4,01.18,0.508
2014-04-23 00:52:00,2959E-2,5C000400,-0724,1026,10326,028.5,045.3,0.000,739.4,01.18,0.508
2014-04-23 00:53:00,2980E-2,5C000400,-0724,1026,10232,028.5,045.3,0.000,739.3,01.18,0.508
2014-04-23 00:54:00,2961E-2,5C000400,-0724,1027,10301,028.5,045.3,0.000,739.4,01.18,0.508
2014-04-23 00:55:00,2973E-2,5C000400,-0724,1026,10327,028.5,045.4,0.000,739.3,01.18,0.508
2014-04-23 00:56:00,2937E-2,5C000400,-0724,1026,10117,028.5,045.3,0.000,739.4,01.18,0.508
2014-04-23 00:57:00,2944E-2,5C000400,-0724,1026,10175,028.5,045.3,0.000,739.4,01.18,0.508
2014-04-23 00:58:00,2921E-2,5C000400,-0724,1027,10377,028.5,045.3,0.000,739.4,01.18,0.508
2014-04-23 00:59:00,2956E-2,5C000400,-0724,1026,10224,028.5,045.3,0.000,739.4,01.18,0.508
2014-04-23 01:00:00,2957E-2,5C000400,-0724,1026,10165,028.6,045.3,0.000,739.4,01.18,0.508
2014-04-23 01:01:00,2993E-2,5C000400,-0724,1027,10246,028.6,045.3,0.000,739.4,01.18,0.508
2014-04-23 01:02:00,2932E-2,5C000400,-0724,1027,10054,028.6,045.4,0.000,739.3,01.18,0.508
2014-04-23 01:03:00,2969E-2,5C000400,-0724,1026,10241,028.6,045.3,0.000,739.3,01.18,0.508
2014-04-23 01:04:00,2949E-2,5C000400,-0724,1026,10386,028.6,045.3,0.000,739.3,01.18,0.508
2014-04-23 01:05:00,2953E-2,5C000400,-0724,1026,10206,028.6,045.3,0.000,739.3,01.18,0.508
2014-04-23 01:06:00,3000E-2,5C000400,-0724,1026,10184,028.6,045.3,0.000,739.3,01.18,0.508
2014-04-23 01:07:00,2922E-2,5C000400,-0724,1026,10332,028.6,045.3,0.000,739.4,01.18,0.508
2014-04-23 01:08:00,2967E-2,5C000400,-0724,1025,10272,028.6,045.3,0.000,739.4,01.18,0.508
2014-04-23 01:09:00,2969E-2,5C000400,-0724,1027,10341,028.6,045.3,0.000,739.4,01.18,0.508
2014-04-23 01:10:00,2976E-2,5C000400,-0724,1026,10283,028.6,045.3,0.000,739.4,01.18,0.508
2014-04-23 01:11:00,2964E-2,5C000400,-0724,1027,10257,028.6,045.3,0.000,739.4,01.18,0.508
2014-04-23 01:12:00,2989E-2,5C000400,-0724,1027,10229,028.6,045.4,0.000,739.4,01.18,0.508
2014-04-23 01:13:00,2977E-2,5C000400,-0724,1027,10171,028.6,045.3,0.000,739.3,01.18,0.508
2014-04-23 01:14:00,2966E-2,5C000400,-0724,1028,10250,028.6,045.4,0.000,739.3,01.18,0.508
2014-04-23 01:15:00,2963E-2,5C000400,-0724,1026,10161,028.6,045.3,0.000,739.3,01.18,0.508
2014-04-23 01:16:00,2920E-2,5C000400,-0724,1028,10403,028.7,045.3,0.000,739.3,01.18,0.508
2014-04-23 01:17:00,2981E-2,5C000400,-0724,1028,10334,028.7,045.3,0.000,739.4,01.18,0.508
2014-04-23 01:18:00,2933E-2,5C000400,-0724,1028,10265,028.7,045.3,0.000,739.4,01.18,0.508
2014-04-23 01:19:00,2939E-2,5C000400,-0724,1027,10110,028.7,045.3,0.000,739.3,01.18,0.508
2014-04-23 01:20:00,2945E-2,5C000400,-0724,1027,10252,028.7,045.3,0.000,739.3,01.18,0.508
2014-04-23 01:21:00,2981E-2,5C000400,-0724,1027,10380,028.7,045.3,0.000,739.4,01.18,0.508
2014-04-23 01:22:00,2934E-2,5C000400,-0724,1028,10209,028.7,045.3,0.000,739.4,01.18,0.508
2014-04-23 01:23:00,2927E-2,5C000410,-0724,1027,10275,028.7,045.3,0.000,739.4,01.18,0.508
2014-04-23 01:24:00,2891E-2,5C000400,-0724,1020,10375,028.8,045.3,0.000,739.4,01.18,0.508
2014-04-23 01:25:00,2894E-2,5C000400,-0724,1027,10293,028.7,045.3,0.000,739.4,01.18,0.508
2014-04-23 01:26:00,2927E-2,5C000400,-0724,1025,10090,028.7,045.3,0.000,739.4,01.18,0.508
2014-04-23 01:27:00,2905E-2,5C000400,-0724,1028,10201,028.8,045.3,0.000,739.4,01.18,0.508
2014-04-23 01:28:00,2926E-2,5C000400,-0724,1028,10200,028.8,045.3,0.000,739.4,01.18,0.508
2014-04-23 01:29:00,2900E-2,5C000400,-0724,1027,10111,028.8,045.3,0.000,739.5,01.18,0.508
2014-04-23 01:30:00,2884E-2,5C000400,-0724,1028,10159,028.8,045.3,0.000,739.5,01.18,0.508
2014-04-23 01:31:00,2943E-2,5C000400,-0724,1029,10202,028.8,045.3,0.000,739.5,01.18,0.508
2014-04-23 01:32:00,2930E-2,5C000400,-0724,1028,10287,028.8,045.3,0.000,739.5,01.18,0.508
2014-04-23 01:33:00,2949E-2,5C000400,-0724,1027,10237,028.8,045.3,0.000,739.4,01.18,0.508
2014-04-23 01:34:00,2894E-2,5C000400,-0724,1028,10153,028.8,045.3,0.000,739.4,01.18,0.508
2014-04-23 01:35:00,2940E-2,5C000400,-0724,1028,10231,028.9,045.3,0.000,739.4,01.18,0.508
2014-04-23 01:36:00,2912E-2,5C000400,-0724,1028,10283,028.8,045.4,0.000,739.4,01.18,0.508
2014-04-23 01:37:00,2959E-2,5C000400,-0724,1028,10188,028.9,045.3,0.000,739.4,01.18,0.508
2014-04-23 01:38:00,2925E-2,5C000400,-0724,1028,10097,028.9,045.3,0.000,739.4,01.18,0.508
2014-04-23 01:39:00,2925E-2,5C000400,-0724,1028,10125,028.9,045.4,0.000,739.4,01.18,0.508
2014-04-23 01:40:00,2858E-2,5C000400,-0724,1029,10075,028.9,045.4,0.000,739.4,01.18,0.508
2014-04-23 01:41:00,2928E-2,5C000400,-0724,1028,10138,028.9,045.3,0.000,739.4,01.18,0.508
2014-04-23 01:42:00,2932E-2,5C000400,-0724,1028,10102,028.9,045.3,0.000,739.4,01.18,0.508
2014-04-23 01:43:00,2939E-2,5C000400,-0724,1029,10085,028.9,045.4,0.000,739.4,01.18,0.508
2014-04-23 01:44:00,2911E-2,5C000400,-0724,1030,10127,028.9,045.4,0.000,739.4,01.18,0.508
2014-04-23 01:45:00,2933E-2,5C000400,-0724,1029,10336,029.0,045.3,0.000,739.4,01.18,0.508
2014-04-23 01:46:00,2911E-2,5C000400,-0724,1028,10114,029.0,045.3,0.000,739.4,01.18,0.508
2014-04-23 01:47:00,2893E-2,5C000400,-0724,1028,10212,029.0,045.4,0.000,739.4,01.18,0.508
2014-04-23 01:48:00,2902E-2,5C000400,-0724,1029,10179,029.0,045.3,0.000,739.4,01.18,0.508
2014-04-23 01:49:00,2894E-2,5C000400,-0724,1028,10151,029.0,045.4,0.000,739.4,01.18,0.508
2014-04-23 01:50:00,2923E-2,5C000400,-0724,1028,10223,029.0,045.4,0.000,739.4,01.18,0.508
2014-04-23 01:51:00,2882E-2,5C000400,-0724,1029,10274,029.0,045.4,0.000,739.4,01.18,0.508
2014-04-23 01:52:00,2912E-2,5C000400,-0724,1028,10276,029.0,045.4,0.000,739.4,01.18,0.508
2014-04-23 01:53:00,2935E-2,5C000400,-0724,1028,10184,029.0,045.3,0.000,739.4,01.18,0.508
2014-04-23 01:54:00,2927E-2,5C000400,-0724,1028,10101,029.0,045.3,0.000,739.4,01.18,0.508
2014-04-23 01:55:00,2920E-2,5C000400,-0724,1027,10251,029.0,045.3,0.000,739.4,01.18,0.508
2014-04-23 01:56:00,2893E-2,5C000400,-0724,1029,10126,029.1,045.4,0.000,739.4,01.18,0.508
2014-04-23 01:57:00,2963E-2,5C000400,-0724,1029,10220,029.1,045.3,0.000,739.4,01.18,0.508
2014-04-23 01:58:00,2917E-2,5C000400,-0724,1029,10339,029.1,045.4,0.000,739.4,01.18,0.508
2014-04-23 01:59:00,2877E-2,5C000400,-0724,1028,10212,029.1,045.3,0.000,739.4,01.18,0.508
2014-04-23 02:00:00,2909E-2,5C000400,-0724,1029,10254,029.1,045.4,0.000,739.4,01.18,0.508
2014-04-23 02:01:00,2891E-2,5C000400,-0724,1029,10122,029.1,045.4,0.000,739.4,01.18,0.508
2014-04-23 02:02:00,2881E-2,5C000400,-0724,1029,10266,029.1,045.4,0.000,739.4,01.18,0.508
2014-04-23 02:03:00,2958E-2,5C000400,-0724,1029,10245,029.1,045.3,0.000,739.4,01.18,0.508
2014-04-23 02:04:00,2967E-2,5C000400,-0724,1029,10246,029.1,045.4,0.000,739.4,01.18,0.508
2014-04-23 02:05:00,2913E-2,5C000400,-0724,1030,10306,029.1,045.4,0.000,739.4,01.18,0.508
2014-04-23 02:06:00,2945E-2,5C000400,-0724,1031,10130,029.1,045.4,0.000,739.4,01.18,0.508
2014-04-23 02:07:00,2930E-2,5C000400,-0724,1030,10070,029.1,045.4,0.000,739.4,01.18,0.508
2014-04-23 02:08:00,2933E-2,5C000400,-0724,1030,10208,029.2,045.4,0.000,739.4,01.18,0.508
2014-04-23 02:09:00,2951E-2,5C000400,-0724,1030,10193,029.2,045.4,0.000,739.4,01.18,0.508
2014-04-23 02:10:00,2943E-2,5C000400,-0724,1031,10218,029.2,045.4,0.000,739.4,01.18,0.508
2014-04-23 02:11:00,2924E-2,5C000400,-0724,1031,10182,029.2,045.4,0.000,739.4,01.18,0.508
2014-04-23 02:12:00,2948E-2,5C000400,-0724,1030,10257,029.2,045.4,0.000,739.4,01.18,0.508
2014-04-23 02:13:00,2910E-2,5C000400,-0724,1031,10339,029.2,045.3,0.000,739.4,01.18,0.508
2014-04-23 02:14:00,2947E-2,5C000400,-0724,1031,10156,029.2,045.3,0.000,739.4,01.18,0.508
2014-04-23 02:15:00,2927E-2,5C000400,-0724,1030,10064,029.2,045.4,0.000,739.4,01.18,0.508
2014-04-23 02:16:00,2895E-2,5C000400,-0724,1029,10256,029.2,045.4,0.000,739.4,01.18,0.508
2014-04-23 02:17:00,2938E-2,5C000410,-0724,1029,10178,029.2,045.4,0.000,739.4,01.18,0.508
2014-04-23 02:18:00,2917E-2,5C000400,-0724,1028,10196,029.2,045.4,0.000,739.4,01.18,0.508
2014-04-23 02:19:00,2899E-2,5C000400,-0724,1027,10065,029.2,045.4,0.000,739.4,01.18,0.508
2014-04-23 02:20:00,2890E-2,5C000400,-0724,1027,10275,029.2,045.4,0.000,739.4,01.18,0.508
2014-04-23 02:21:00,2879E-2,5C000400,-0724,1028,10251,029.3,045.4,0.000,739.5,01.18,0.508
2014-04-23 02:22:00,2919E-2,5C000400,-0724,1028,10128,029.2,045.4,0.000,739.5,01.18,0.508
2014-04-23 02:23:00,2916E-2,5C000400,-0724,1027,10303,029.2,045.4,0.000,739.5,01.18,0.508
2014-04-23 02:24:00,2890E-2,5C000400,-0724,1026,10367,029.2,045.4,0.000,739.5,01.18,0.508
2014-04-23 02:25:00,2869E-2,5C000400,-0724,1026,10386,029.2,045.4,0.000,739.5,01.18,0.508
2014-04-23 02:26:00,2914E-2,5C000400,-0724,1027,10201,029.2,045.4,0.000,739.5,01.18,0.508
2014-04-23 02:27:00,2901E-2,5C000400,-0724,1026,10376,029.2,045.4,0.000,739.5,01.18,0.508
2014-04-23 02:28:00,2885E-2,5C000400,-0724,1027,10101,029.2,045.4,0.000,739.5,01.18,0.508
2014-04-23 02:29:00,2876E-2,5C000400,-0724,1027,10306,029.1,045.4,0.000,739.5,01.18,0.508
2014-04-23 02:30:00,2887E-2,5C000400,-0724,1028,10342,029.2,045.3,0.000,739.5,01.18,0.508
2014-04-23 02:31:00,2878E-2,5C000400,-0724,1026,10247,029.1,045.4,0.000,739.4,01.18,0.508
2014-04-23 02:32:00,2892E-2,5C000400,-0724,1027,10131,029.1,045.3,0.000,739.5,01.18,0.508
2014-04-23 02:33:00,2927E-2,5C000410,-0724,1027,9987,029.1,045.4,0.000,739.5,01.18,0.508
2014-04-23 02:34:00,2912E-2,5C000400,-0724,1027,10215,029.1,045.4,0.000,739.5,01.18,0.508
2014-04-23 02:35:00,2865E-2,5C000400,-0724,1027,10148,029.0,045.4,0.000,739.4,01.18,0.508
2014-04-23 02:36:00,2906E-2,5C000400,-0724,1027,10286,029.0,045.4,0.000,739.4,01.18,0.508
2014-04-23 02:37:00,2860E-2,5C000400,-0724,1026,10191,029.0,045.4,0.000,739.4,01.18,0.508
2014-04-23 02:38:00,2861E-2,5C000400,-0724,1027,10188,029.0,045.4,0.000,739.4,01.18,0.508
2014-04-23 02:39:00,2928E-2,5C000400,-0724,1025,10167,029.0,045.4,0.000,739.5,01.18,0.508
2014-04-23 02:40:00,2890E-2,5C000400,-0724,1026,10253,028.9,045.3,0.000,739.5,01.18,0.508
2014-04-23 02:41:00,2900E-2,5C000400,-0724,1025,10262,029.0,045.3,0.000,739.5,01.18,0.508
2014-04-23 02:42:00,2899E-2,5C000400,-0724,1026,10247,028.9,045.4,0.000,739.5,01.18,0.508
2014-04-23 02:43:00,2953E-2,5C000400,-0724,1026,10342,028.9,045.4,0.000,739.5,01.18,0.508
2014-04-23 02:44:00,2895E-2,5C000400,-0724,1025,10212,028.9,045.4,0.000,739.4,01.18,0.508
2014-04-23 02:45:00,2907E-2,5C000400,-0724,1024,10309,028.8,045.3,0.000,739.5,01.18,0.508
2014-04-23 02:46:00,2903E-2,5C000400,-0724,1025,10318,028.8,045.4,0.000,739.5,01.18,0.508
2014-04-23 02:47:00,2892E-2,5C000400,-0724,1025,10380,028.8,045.3,0.000,739.5,01.18,0.508
2014-04-23 02:48:00,2882E-2,5C000400,-0724,1026,10294,028.8,045.3,0.000,739.5,01.18,0.508
2014-04-23 02:49:00,2930E-2,5C000400,-0724,1025,10350,028.8,045.3,0.000,739.5,01.18,0.508
2014-04-23 02:50:00,2890E-2,5C000400,-0724,1027,10316,028.8,045.4,0.000,739.5,01.18,0.508
2014-04-23 02:51:00,2927E-2,5C000400,-0724,1025,10091,028.8,045.3,0.000,739.5,01.18,0.508
2014-04-23 02:52:00,2900E-2,5C000400,-0724,1025,10304,028.8,045.3,0.000,739.5,01.18,0.508
2014-04-23 02:53:00,2903E-2,5C000400,-0724,1025,10373,028.8,045.3,0.000,739.5,01.18,0.508
2014-04-23 02:54:00,2925E-2,5C000400,-0724,1026,10310,028.8,045.4,0.000,739.5,01.18,0.508
2014-04-23 02:55:00,2886E-2,5C000400,-0724,1026,10324,028.8,045.3,0.000,739.5,01.18,0.508
2014-04-23 02:56:00,2884E-2,5C000400,-0724,1026,10323,028.8,045.3,0.000,739.5,01.18,0.508
2014-04-23 02:57:00,2889E-2,5C000400,-0724,1025,10292,028.7,045.3,0.000,739.5,01.18,0.508
2014-04-23 02:58:00,2922E-2,5C000400,-0724,1025,10089,028.8,045.3,0.000,739.6,01.18,0.508
2014-04-23 02:59:00,2932E-2,5C000400,-0724,1026,10121,028.7,045.4,0.000,739.6,01.18,0.508
2014-04-23 03:00:00,2898E-2,5C000400,-0724,1025,10382,028.7,045.4,0.000,739.6,01.18,0.508
2014-04-23 03:01:00,2867E-2,5C000400,-0724,1025,10074,028.7,045.3,0.000,739.5,01.18,0.508
2014-04-23 03:02:00,2857E-2,5C000400,-0724,1025,10395,028.7,045.3,0.000,739.6,01.18,0.508
2014-04-23 03:03:00,2895E-2,5C000400,-0724,1026,10225,028.7,045.3,0.000,739.6,01.18,0.508
2014-04-23 03:04:00,2921E-2,5C000400,-0724,1024,10279,028.7,045.3,0.000,739.6,01.18,0.508
2014-04-23 03:05:00,2902E-2,5C000400,-0724,1026,10269,028.7,045.3,0.000,739.6,01.18,0.508
2014-04-23 03:06:00,2877E-2,5C000400,-0724,1026,10407,028.8,045.4,0.000,739.6,01.18,0.508
2014-04-23 03:07:00,2880E-2,5C000400,-0724,1025,10141,028.7,045.3,0.000,739.6,01.18,0.508
2014-04-23 03:08:00,2875E-2,5C000400,-0724,1026,10179,028.7,045.3,0.000,739.6,01.18,0.508
2014-04-23 03:09:00,2895E-2,5C000400,-0724,1025,10279,028.7,045.4,0.000,739.6,01.18,0.508
2014-04-23 03:10:00,2892E-2,5C000400,-0724,1025,10311,028.7,045.4,0.000,739.6,01.18,0.508
2014-04-23 03:11:00,2869E-2,5C000400,-0724,1024,10272,028.7,045.4,0.000,739.6,01.18,0.508
2014-04-23 03:12:00,2891E-2,5C000400,-0724,1024,10317,028.7,045.3,0.000,739.6,01.18,0.508
2014-04-23 03:13:00,2864E-2,5C000400,-0724,1026,10265,028.7,045.3,0.000,739.6,01.18,0.508
2014-04-23 03:14:00,2880E-2,5C000400,-0724,1025,10316,028.7,045.3,0.000,739.6,01.18,0.508
2014-04-23 03:15:00,2903E-2,5C000400,-0724,1024,10312,028.7,045.4,0.000,739.6,01.18,0.508
2014-04-23 03:16:00,2882E-2,5C000400,-0724,1025,10174,028.7,045.3,0.000,739.6,01.18,0.508
2014-04-23 03:17:00,2906E-2,5C000400,-0724,1024,10210,028.7,045.3,0.000,739.6,01.18,0.508
2014-04-23 03:18:00,2886E-2,5C000400,-0724,1024,10189,028.7,045.3,0.000,739.6,01.18,0.508
2014-04-23 03:19:00,2926E-2,5C000400,-0724,1024,10309,028.6,045.3,0.000,739.6,01.18,0.508
2014-04-23 03:20:00,2911E-2,5C000400,-0724,1024,10272,028.6,045.3,0.000,739.6,01.18,0.508
2014-04-23 03:21:00,2928E-2,5C000400,-0724,1024,10255,028.6,045.3,0.000,739.6,01.18,0.508
2014-04-23 03:22:00,2905E-2,5C000400,-0724,1024,10416,028.7,045.4,0.000,739.6,01.18,0.508
2014-04-23 03:23:00,2888E-2,5C000400,-0724,1024,10142,028.7,045.3,0.000,739.6,01.18,0.508
2014-04-23 03:24:00,2910E-2,5C000400,-0724,1024,10322,028.6,045.3,0.000,739.6,01.18,0.508
2014-04-23 03:25:00,2923E-2,5C000400,-0724,1024,10295,028.7,045.3,0.000,739.6,01.18,0.508
2014-04-23 03:26:00,2882E-2,5C000400,-0724,1024,10265,028.6,045.3,0.000,739.6,01.18,0.508
2014-04-23 03:27:00,2925E-2,5C000400,-0724,1024,10375,028.6,045.3,0.000,739.6,01.18,0.508
2014-04-23 03:28:00,2944E-2,5C000400,-0724,1024,10320,028.7,045.3,0.000,739.6,01.18,0.508
2014-04-23 03:29:00,2872E-2,5C000400,-0724,1024,10155,028.6,045.3,0.000,739.6,01.18,0.508
2014-04-23 03:30:00,2916E-2,5C000400,-0724,1023,10305,028.6,045.4,0.000,739.6,01.18,0.508
2014-04-23 03:31:00,2943E-2,5C000400,-0724,1023,10199,028.6,045.4,0.000,739.6,01.18,0.508
2014-04-23 03:32:00,2896E-2,5C000400,-0724,1024,10334,028.6,045.3,0.000,739.6,01.18,0.508
2014-04-23 03:33:00,2918E-2,5C000400,-0724,1023,10293,028.6,045.4,0.000,739.6,01.18,0.508
2014-04-23 03:34:00,2874E-2,5C000400,-0724,1024,10141,028.6,045.3,0.000,739.6,01.18,0.508
2014-04-23 03:35:00,2909E-2,5C000400,-0724,1024,10418,028.6,045.3,0.000,739.6,01.18,0.508
2014-04-23 03:36:00,2928E-2,5C000400,-0724,1024,10325,028.6,045.4,0.000,739.6,01.18,0.508
2014-04-23 03:37:00,2920E-2,5C000400,-0724,1024,10405,028.6,045.3,0.000,739.6,01.18,0.508
2014-04-23 03:38:00,2922E-2,5C000400,-0724,1023,10118,028.6,045.3,0.000,739.6,01.18,0.508
2014-04-23 03:39:00,2927E-2,5C000400,-0724,1024,10230,028.6,045.4,0.000,739.6,01.18,0.508
2014-04-23 03:40:00,2888E-2,5C000400,-0724,1023,10271,028.6,045.3,0.000,739.6,01.18,0.508
2014-04-23 03:41:00,2893E-2,5C000400,-0724,1025,10373,028.6,045.4,0.000,739.7,01.18,0.508
2014-04-23 03:42:00,2912E-2,5C000400,-0724,1023,10242,028.6,045.4,0.000,739.6,01.18,0.508
2014-04-23 03:43:00,2906E-2,5C000400,-0724,1024,10207,028.6,045.4,0.000,739.6,01.18,0.508
2014-04-23 03:44:00,2865E-2,5C000400,-0724,1023,10300,028.6,045.4,0.000,739.7,01.18,0.508
2014-04-23 03:45:00,2941E-2,5C000400,-0724,1023,10178,028.6,045.3,0.000,739.7,01.18,0.508
2014-04-23 03:46:00,2913E-2,5C000400,-0724,1024,10286,028.6,045.3,0.000,739.7,01.18,0.508
2014-04-23 03:47:00,2895E-2,5C000400,-0724,1025,10253,028.6,045.4,0.000,739.7,01.18,0.508
2014-04-23 03:48:00,2954E-2,5C000400,-0724,1023,10277,028.6,045.3,0.000,739.7,01.18,0.508
2014-04-23 03:49:00,2896E-2,5C000400,-0724,1023,10385,028.6,045.3,0.000,739.8,01.18,0.508
2014-04-23 03:50:00,2937E-2,5C000400,-0724,1023,10362,028.6,045.3,0.000,739.7,01.18,0.508
2014-04-23 03:51:00,2911E-2,5C000400,-0724,1024,10238,028.6,045.3,0.000,739.7,01.18,0.508
2014-04-23 03:52:00,2872E-2,5C000400,-0724,1025,10331,028.5,045.4,0.000,739.7,01.18,0.508
2014-04-23 03:53:00,2934E-2,5C000400,-0724,1023,10272,028.5,045.3,0.000,739.7,01.18,0.508
2014-04-23 03:54:00,2882E-2,5C000400,-0724,1025,10346,028.5,045.3,0.000,739.7,01.18,0.508
2014-04-23 03:55:00,2886E-2,5C000400,-0724,1023,10287,028.5,045.3,0.000,739.7,01.18,0.508
2014-04-23 03:56:00,2900E-2,5C000400,-0724,1023,10305,028.5,045.3,0.000,739.7,01.18,0.508
2014-04-23 03:57:00,2947E-2,5C000400,-0724,1023,10383,028.5,045.4,0.000,739.7,01.18,0.508
2014-04-23 03:58:00,2921E-2,5C000400,-0724,1022,10284,028.5,045.3,0.000,739.8,01.18,0.508
2014-04-23 03:59:00,2930E-2,5C000400,-0724,1024,10406,028.5,045.3,0.000,739.8,01.18,0.508
2014-04-23 04:00:00,2950E-2,5C000400,-0724,1022,10335,028.5,045.3,0.000,739.8,01.18,0.508
2014-04-23 04:01:00,2963E-2,5C000400,-0724,1022,10206,028.5,045.3,0.000,739.8,01.18,0.508
2014-04-23 04:02:00,2939E-2,5C000400,-0724,1024,10291,028.5,045.4,0.000,739.7,01.18,0.508
2014-04-23 04:03:00,2906E-2,5C000400,-0724,1022,10376,028.5,045.3,0.000,739.8,01.18,0.508
2014-04-23 04:04:00,2961E-2,5C000400,-0724,1021,10252,028.5,045.3,0.000,739.8,01.18,0.508
2014-04-23 04:05:00,2950E-2,5C000400,-0724,1022,10363,028.5,045.3,0.000,739.8,01.18,0.508
2014-04-23 04:06:00,2922E-2,5C000400,-0724,1022,10324,028.5,045.4,0.000,739.8,01.18,0.508
2014-04-23 04:07:00,2939E-2,5C000400,-0724,1023,10416,028.5,045.3,0.000,739.8,01.18,0.508
2014-04-23 04:08:00,2953E-2,5C000400,-0724,1022,10336,028.5,045.3,0.000,739.8,01.18,0.508
2014-04-23 04:09:00,2923E-2,5C000400,-0724,1022,10365,028.5,045.3,0.000,739.8,01.18,0.508
2014-04-23 04:10:00,2960E-2,5C000400,-0724,1022,10325,028.5,045.3,0.000,739.8,01.18,0.508
2014-04-23 04:11:00,2925E-2,5C000400,-0724,1022,10356,028.5,045.4,0.000,739.8,01.18,0.508
2014-04-23 04:12:00,2949E-2,5C000400,-0724,1022,10414,028.4,045.4,0.000,739.7,01.18,0.508
2014-04-23 04:13:00,2976E-2,5C000400,-0724,1022,10308,028.5,045.3,0.000,739.7,01.18,0.508
2014-04-23 04:14:00,2940E-2,5C000400,-0724,1022,10401,028.5,045.4,0.000,739.7,01.18,0.508
2014-04-23 04:15:00,2953E-2,5C000400,-0724,1022,10310,028.5,045.4,0.000,739.7,01.18,0.508
2014-04-23 04:16:00,2971E-2,5C000400,-0724,1022,10326,028.5,045.3,0.000,739.7,01.18,0.508
2014-04-23 04:17:00,2956E-2,5C000400,-0724,1023,10304,028.4,045.3,0.000,739.7,01.18,0.508
2014-04-23 04:18:00,2958E-2,5C000400,-0724,1021,10383,028.4,045.3,0.000,739.7,01.18,0.508
2014-04-23 04:19:00,2932E-2,5C000400,-0724,1021,10385,028.4,045.3,0.000,739.7,01.18,0.508
2014-04-23 04:20:00,2934E-2,5C000400,-0724,1021,10321,028.4,045.3,0.000,739.7,01.18,0.508